SCP
-0 -0 -0 -0 -0 -0 -0 -0 -0 -0 0 0 0 0 0 0 0 0 -0 -0 -0 -0 -0 -0 -0 -0 -0 -0 -0 -0 -0 -0
-0 -0 -0 -0 -0 -0 -0 -0 -0 0 0 0 0 0 0 0 -0 -0 -0 -0 -0 -0 -0 -0 -0 -0 -0 0 0 0 0 0
-0 -0 -0 -0 -0 -0 -0 -0 -0 0 0 0 0 0 -0 -0 -0 -0 -0 -0 -0 -0 -0 0 0 0 0 0 0 0 0 0
-0 -0 -0 -0 -0 -0 -0 -0 0 0 0 0 0 0 -0 -0 -0 -0 -0 -0 0 0 0 0 0 0 0 0 0 0 0 0
-0 -0 -0 -0 0 0 0 0 0 0 0 0 0 0 -0 -0 -0 -0 -0 0 0 0 0 0 0 0 0 0 0 0 0 0
-0 -0 -0 -0 -0 0 0 0 0 0 0 0 0 0 0 -0 -0 -0 0 0 0 0 0 0 0 0 0 0 0 1 1 1
-0 -0 -0 -0 0 -0 0 0 0 0 -0 -0 -0 0 0 0 0 0 0 1 0 0 0 0 0 1 1 0 0 0 0 0
-0 -0 -0 -0 0 -0 0 -0 -0 -0 -0 -0 -0 0 0 0 0 0 0 0 0 0 0 0 0 0 0 0 0 0 0 0
-0 -0 -0 -0 -0 0 0 -0 -0 -0 -0 -0 0 0 0 0 0 0 0 0 0 0 0 0 0 0 0 0 0 0 0 0
0 0 -0 0 0 0 0 -0 -0 -0 0 0 0 0 0 0 0 0 0 0 0 0 0 0 0 0 0 0 0 0 0 0
0 0 0 0 0 0 0 0 0 0 0 0 0 0 0 0 0 0 0 0 0 0 0 0 0 0 0 0 0 0 0 0
0 0 0 0 0 0 0 0 0 0 0 0 0 0 0 0 0 0 0 0 0 0 0 0 0 0 0 0 0 0 0 0
0 0 0 0 0 0 0 0 0 0 0 0 0 0 0 0 0 0 0 0 0 0 0 0 0 0 0 0 0 0 0 0
0 0 0 0 1 0 0 0 1 0 0 0 0 0 0 0 0 0 0 0 0 0 0 0 0 0 0 0 0 0 0 0
0 -0 0 1 1 1 1 1 0 0 0 0 0 0 0 0 0 0 0 0 0 0 0 0 0 0 0 0 0 0 0 0
0 0 0 1 2 1 2 1 1 0 0 0 0 0 0 0 0 0 0 0 0 0 0 0 0 0 0 0 0 0 0 0
0 1 0 1 1 1 1 0 1 0 0 0 0 0 0 0 0 0 0 0 0 0 0 0 0 0 0 0 0 0 0 0
0 0 0 0 1 1 1 0 0 0 0 0 0 0 0 0 0 0 0 0 0 0 0 0 0 0 0 0 0 0 0 0
0 0 0 0 0 0 0 0 0 0 0 0 0 0 0 0 0 0 0 0 0 0 0 0 0 0 0 0 0 0 0 0
Wind_Speed_500mb
40 37 34 32 29 28 26 24 22 19 15 12 9 8 6 6 7 7 8 9 11 13 16 19 22 24 26 28 30 33 35 36
35 30 30 28 27 26 25 24 21 19 16 13 10 8 7 6 5 6 7 10 13 16 17 18 20 24 27 31 35 38 39 38
31 23 25 28 27 27 25 24 22 19 16 12 10 8 6 5 5 6 8 11 12 13 16 19 22 26 31 37 38 34 31 33
26 16 25 28 29 28 26 25 22 18 16 13 11 10 9 9 9 10 10 14 16 20 24 26 24 25 32 33 26 26 32 33
13 22 27 28 28 27 25 23 20 18 16 15 14 14 14 21 12 12 14 19 19 22 27 24 24 27 35 32 32 30 37 37
19 15 28 30 28 27 24 21 19 18 18 17 23 25 20 12 7 7 14 17 17 15 23 23 24 30 35 39 45 51 49 58
39 22 17 26 18 28 19 16 15 18 20 21 27 21 19 12 6 5 10 10 11 15 19 23 31 42 45 54 60 66 68 60
44 33 31 26 19 19 24 12 11 17 20 20 27 17 15 9 14 14 16 17 18 23 30 34 38 46 55 65 68 66 65 62
46 39 34 33 26 31 25 18 14 12 10 6 10 21 21 28 27 25 25 25 29 36 37 40 44 55 66 68 66 63 59 58
46 40 44 46 37 24 25 18 16 15 13 20 22 22 21 25 31 27 28 29 30 35 39 41 52 63 66 67 67 61 62 66
47 41 47 47 40 33 37 33 32 30 23 26 30 33 30 28 32 28 25 26 34 38 40 48 58 68 71 66 62 63 64 55
44 44 46 43 36 52 47 42 34 32 26 29 32 35 35 32 32 26 27 32 34 39 46 54 62 64 65 61 65 59 52 49
40 41 43 40 31 37 46 46 41 36 28 27 36 39 38 37 33 26 32 38 40 45 54 56 60 61 58 61 62 48 47 44
11 36 38 34 30 27 29 35 36 32 38 40 43 46 34 33 44 44 44 44 49 54 52 56 57 56 58 52 44 41 43 44
12 23 35 35 26 21 29 30 33 37 41 41 38 36 38 45 51 46 41 43 47 49 50 53 50 52 43 41 40 40 47 21
37 30 30 50 33 32 41 44 41 43 37 37 44 45 40 37 39 40 42 47 44 44 44 45 48 45 39 42 43 52 46 25
34 70 37 33 34 44 54 47 47 37 25 29 33 35 34 39 35 42 44 40 38 40 44 44 37 39 40 42 44 38 35 33
30 22 54 52 36 37 39 34 26 18 16 23 28 32 34 35 37 34 37 38 40 46 44 33 30 33 37 33 32 30 16 19
30 26 34 35 21 15 10 7 8 9 10 18 23 26 29 25 27 30 32 35 44 49 41 33 26 29 31 34 37 31 36 42
Wind_Direction_500mb
150 146 146 148 146 145 144 143 143 142 140 137 139 126 115 97 81 71 56 45 30 29 34 31 25 18 12 4 357 352 348 344
133 146 150 149 150 147 150 150 148 148 152 151 145 131 121 106 87 69 52 39 43 42 35 25 14 6 359 352 347 342 335 333
150 136 157 154 156 155 155 152 155 159 152 145 142 136 125 115 101 87 65 58 46 32 16 4 355 349 349 350 346 346 344 335
157 184 172 163 161 160 160 161 163 157 156 154 149 139 134 119 105 82 68 43 19 10 3 356 345 345 348 349 350 339 325 317
170 153 170 163 162 165 166 166 166 162 158 152 135 118 110 95 104 43 72 26 16 6 6 359 339 338 341 336 326 316 308 302
186 159 172 168 167 168 166 168 164 160 155 143 129 116 112 119 95 47 22 5 357 347 352 334 324 326 321 314 313 311 303 299
182 166 160 147 150 162 136 150 164 162 155 147 145 142 134 134 151 348 334 343 322 317 314 298 300 306 311 314 309 305 302 300
192 184 180 159 159 179 163 167 189 165 171 167 167 180 160 168 170 205 242 262 277 283 283 287 299 314 311 310 306 304 301 300
187 191 179 166 169 209 184 173 182 173 192 212 249 231 207 200 218 233 249 250 265 272 280 295 309 311 312 311 310 308 305 304
175 178 174 163 182 181 181 169 168 176 210 228 246 233 238 243 235 245 253 265 272 278 290 300 306 310 315 311 309 309 307 303
175 184 187 185 197 172 170 170 177 190 215 233 235 243 244 252 245 252 261 264 272 284 294 300 308 313 314 312 309 304 307 306
178 189 197 199 200 205 183 185 196 199 198 231 248 255 256 262 259 260 269 274 286 295 301 307 310 311 311 312 307 308 307 301
180 192 198 204 209 207 218 219 214 215 222 230 234 245 251 257 265 294 299 292 298 302 307 311 311 313 314 315 312 313 309 310
139 189 204 211 219 236 236 225 222 209 221 232 237 247 260 292 308 304 296 300 303 306 313 312 316 320 321 320 323 321 322 328
343 275 212 214 221 228 243 215 210 212 219 227 244 256 279 301 297 297 299 303 303 312 315 319 322 326 328 330 336 333 331 351
199 225 241 198 201 212 206 209 209 219 224 239 264 271 283 295 300 301 305 305 313 320 325 330 328 337 343 346 349 341 351 10
195 211 241 228 218 214 214 227 225 228 243 270 270 283 283 301 305 309 310 312 326 331 333 333 341 344 348 350 349 350 342 349
155 186 226 234 227 228 236 212 216 232 254 261 264 286 301 304 313 320 320 324 331 337 335 334 336 334 338 344 349 338 325 307
184 191 222 238 250 237 209 209 206 243 233 254 270 285 301 312 334 339 324 323 327 332 333 337 325 325 323 330 335 338 330 315
Wind_Speed_850mb
40 37 34 32 29 28 26 24 22 19 15 12 9 8 6 6 7 7 8 9 11 13 16 19 22 24 26 28 30 33 35 36
35 30 30 28 27 26 25 24 21 19 16 13 10 8 7 6 5 6 7 10 13 16 17 18 20 24 27 31 35 38 39 38
31 23 25 28 27 27 25 24 22 19 16 12 10 8 6 5 5 6 8 11 12 13 16 19 22 26 31 37 38 34 31 33
26 16 25 28 29 28 26 25 22 18 16 13 11 10 9 9 9 10 10 14 16 20 24 26 24 25 32 33 26 26 32 33
13 22 27 28 28 27 25 23 20 18 16 15 14 14 14 21 12 12 14 19 19 22 27 24 24 27 35 32 32 30 37 37
19 15 28 30 28 27 24 21 19 18 18 17 23 25 20 12 7 7 14 17 17 15 23 23 24 30 35 39 45 51 49 58
39 22 17 26 18 28 19 16 15 18 20 21 27 21 19 12 6 5 10 10 11 15 19 23 31 42 45 54 60 66 68 60
44 33 31 26 19 19 24 12 11 17 20 20 27 17 15 9 14 14 16 17 18 23 30 34 38 46 55 65 68 66 65 62
46 39 34 33 26 31 25 18 14 12 10 6 10 21 21 28 27 25 25 25 29 36 37 40 44 55 66 68 66 63 59 58
46 40 44 46 37 24 25 18 16 15 13 20 22 22 21 25 31 27 28 29 30 35 39 41 52 63 66 67 67 61 62 66
47 41 47 47 40 33 37 33 32 30 23 26 30 33 30 28 32 28 25 26 34 38 40 48 58 68 71 66 62 63 64 55
44 44 46 43 36 52 47 42 34 32 26 29 32 35 35 32 32 26 27 32 34 39 46 54 62 64 65 61 65 59 52 49
40 41 43 40 31 37 46 46 41 36 28 27 36 39 38 37 33 26 32 38 40 45 54 56 60 61 58 61 62 48 47 44
11 36 38 34 30 27 29 35 36 32 38 40 43 46 34 33 44 44 44 44 49 54 52 56 57 56 58 52 44 41 43 44
12 23 35 35 26 21 29 30 33 37 41 41 38 36 38 45 51 46 41 43 47 49 50 53 50 52 43 41 40 40 47 21
37 30 30 50 33 32 41 44 41 43 37 37 44 45 40 37 39 40 42 47 44 44 44 45 48 45 39 42 43 52 46 25
34 70 37 33 34 44 54 47 47 37 25 29 33 35 34 39 35 42 44 40 38 40 44 44 37 39 40 42 44 38 35 33
30 22 54 52 36 37 39 34 26 18 16 23 28 32 34 35 37 34 37 38 40 46 44 33 30 33 37 33 32 30 16 19
30 26 34 35 21 15 10 7 8 9 10 18 23 26 29 25 27 30 32 35 44 49 41 33 26 29 31 34 37 31 36 42
Wind_Direction_850mb
150 146 146 148 146 145 144 143 143 142 140 137 139 126 115 97 81 71 56 45 30 29 34 31 25 18 12 4 357 352 348 344
133 146 150 149 150 147 150 150 148 148 152 151 145 131 121 106 87 69 52 39 43 42 35 25 14 6 359 352 347 342 335 333
150 136 157 154 156 155 155 152 155 159 152 145 142 136 125 115 101 87 65 58 46 32 16 4 355 349 349 350 346 346 344 335
157 184 172 163 161 160 160 161 163 157 156 154 149 139 134 119 105 82 68 43 19 10 3 356 345 345 348 349 350 339 325 317
170 153 170 163 162 165 166 166 166 162 158 152 135 118 110 95 104 43 72 26 16 6 6 359 339 338 341 336 326 316 308 302
186 159 172 168 167 168 166 168 164 160 155 143 129 116 112 119 95 47 22 5 357 347 352 334 324 326 321 314 313 311 303 299
182 166 160 147 150 162 136 150 164 162 155 147 145 142 134 134 151 348 334 343 322 317 314 298 300 306 311 314 309 305 302 300
192 184 180 159 159 179 163 167 189 165 171 167 167 180 160 168 170 205 242 262 277 283 283 287 299 314 311 310 306 304 301 300
187 191 179 166 169 209 184 173 182 173 192 212 249 231 207 200 218 233 249 250 265 272 280 295 309 311 312 311 310 308 305 304
175 178 174 163 182 181 181 169 168 176 210 228 246 233 238 243 235 245 253 265 272 278 290 300 306 310 315 311 309 309 307 303
175 184 187 185 197 172 170 170 177 190 215 233 235 243 244 252 245 252 261 264 272 284 294 300 308 313 314 312 309 304 307 306
178 189 197 199 200 205 183 185 196 199 198 231 248 255 256 262 259 260 269 274 286 295 301 307 310 311 311 312 307 308 307 301
180 192 198 204 209 207 218 219 214 215 222 230 234 245 251 257 265 294 299 292 298 302 307 311 311 313 314 315 312 313 309 310
139 189 204 211 219 236 236 225 222 209 221 232 237 247 260 292 308 304 296 300 303 306 313 312 316 320 321 320 323 321 322 328
343 275 212 214 221 228 243 215 210 212 219 227 244 256 279 301 297 297 299 303 303 312 315 319 322 326 328 330 336 333 331 351
199 225 241 198 201 212 206 209 209 219 224 239 264 271 283 295 300 301 305 305 313 320 325 330 328 337 343 346 349 341 351 10
195 211 241 228 218 214 214 227 225 228 243 270 270 283 283 301 305 309 310 312 326 331 333 333 341 344 348 350 349 350 342 349
155 186 226 234 227 228 236 212 216 232 254 261 264 286 301 304 313 320 320 324 331 337 335 334 336 334 338 344 349 338 325 307
184 191 222 238 250 237 209 209 206 243 233 254 270 285 301 312 334 339 324 323 327 332 333 337 325 325 323 330 335 338 330 315